Regional Weather Roundup
Issued by NWS

Home | Current Version | Previous Version | Text Only | Print | Product List | Glossary On
Versions: 1 2 3 4 5 6 7 8 9 10 11 12 13 14 15 16 17 18 19 20 21 22 23 24 25 26 27 28 29 30 31 32 33 34 35 36 37 38 39 40 41 42 43 44 45 46 47 48 49 50
000
ASCA44 KEWX 010820
RWRMX

LATIN AMERICA AND CARIBBEAN REGIONAL WEATHER ROUNDUP
NATIONAL WEATHER SERVICE AUSTIN/SAN ANTONIO TX
200 AM CST SUN MAR 01 2015

NOTE: "FAIR" INDICATED FEW OR NO CLOUDS BELOW 12,000 FEET WITH NO
SIGNIFICANT WEATHER AND/OR OBSTRUCTIONS TO VISIBILITY.

BAJA CALIFORNIA

CITY           SKY/WX    TMP DP  RH WIND       PRES   REMARKS
TIJUANA        MOCLDY    55  48  76 CALM      29.96S

NORTHWESTERN MEXICO

CITY           SKY/WX    TMP DP  RH WIND       PRES   REMARKS
HERMOSILLO     CLEAR     63  54  72 SE6       29.99R

NORTHEASTERN MEXICO

CITY           SKY/WX    TMP DP  RH WIND       PRES   REMARKS
MONTERREY      FOG       46  45  93 E3        30.15F VSB 1
REYNOSA        CLOUDY    46  43  87 NW9       30.17S FOG     WCI  42
TORREON        PTCLDY    59  39  47 W3        30.07S
CD. VICTORIA   CLOUDY    52  46  82 N2        30.16F

WESTERN MEXICO

CITY           SKY/WX    TMP DP  RH WIND       PRES   REMARKS
DEL BAJIO      CLEAR     54  32  43 N6        30.32F
GUADALAJARA    CLEAR     52  32  46 CALM      30.20F
MAZATLAN       CLEAR     55  52  88 N10       29.98F
P. VALLARTA    MOCLDY    66  64  94 NE5       29.97F

CENTRAL MEXICO

CITY           SKY/WX    TMP DP  RH WIND       PRES   REMARKS
MEXICO CITY    CLEAR     61  39  44 N5        30.33F
MORELIA        CLEAR     50  36  57 CALM      30.26S
QUERETARO        N/A    N/A N/A N/A MISG        N/A
S. LUIS POTOSI CLEAR     48  41  76 N5        30.27F WCI  46
TOLUCA         CLEAR     41  34  75 CALM      30.41S

SOUTHERN MEXICO

CITY           SKY/WX    TMP DP  RH WIND       PRES   REMARKS
ACAPULCO       CLEAR     73  66  78 NE2       29.96S
VERACRUZ       PTCLDY    64  61  88 CALM      30.09S

YUCATAN PENINSULA

CITY           SKY/WX    TMP DP  RH WIND       PRES   REMARKS
CANCUN         PTCLDY    75  72  88 NE6       30.12F
COZUMEL        CLEAR     70  70 100 E3        30.12F
MERIDA         CLEAR     73  70  88 E7        30.11F
TAPACHULA      CLEAR     77  73  88 CALM      29.94F

CENTRAL AMERICA

CITY           SKY/WX    TMP DP  RH WIND       PRES   REMARKS

CARIBBEAN

CITY           SKY/WX    TMP DP  RH WIND       PRES   REMARKS
CURACAO        PTCLDY    77  72  83 SE12      29.97S
KINGSTON       PTCLDY    77  68  73 NW8       30.03S
NASSAU         MOCLDY    72  68  88 NE8       30.24F
SAN JUAN       PTCLDY    77  72  83 NE13      30.09F
SANTO DOMINGO  MOCLDY    72  70  94 NE7       30.09S
ST. MAARTEN    PTCLDY    77  66  69 E18       30.06S

$$



USA.gov is the U.S. government's official web portal to all federal, state and local government web resources and services.